Location: Cheyres
(46.8153°N, 6.7877°E)
Time: 01:55:40
(UTC+00:00)

Tiros 1 - Pass Details

Date: 01 June 2022
Orbit: 629 x 663 km, 48.4° (Epoch: 05 July)

Event Time Altitude Azimuth Distance (km) Brightness Sun altitude
Rises 22:43:55 0° 246° (WSW) 2,907 10.4 -20.2°
Reaches altitude 10° 22:46:14 10° 244° (WSW) 2,002 9.5 -20.3°
Maximum altitude 22:50:49 75° 160° (SSE) 654 6.9 -20.4°
Drops below altitude 10° 22:55:27 10° 75° (ENE) 2,016 9.7 -20.6°
Sets 22:57:47 0° 74° (ENE) 2,930 10.6 -20.6°
